Welcome to the New NWS' Forecast!
Most changes are behind the scenes, but click here for differences you might notice.
Latest weather observations around

Montgomery, Dannelly Field (KMGM)

Using English Units (Switch to International System of Units)
Date/ Time (CDT) Wind (mph) Vis. (mi) Weather Sky Cond. Temp (°F) Rel. Humidity Wind Chill (°F) Heat Index (°F) Pressure Precip. (in)
Air Dwpt 6 hour Altimeter (inHg) Sea level (inHg) 1 hr 3 hr 6 hr
Max Min
Oct 22 06:53 NE 5 10 Clear CLR 44 41     89% 41   30.27 30.27      
Oct 22 05:53 NE 5 10 Clear CLR 45 41     86% 43   30.26 30.25      
Oct 22 04:53 Calm 10 Clear CLR 44 40     85%     30.24 30.24      
Oct 22 03:53 NE 5 10 Clear CLR 44 41     89% 41   30.22 30.22      
Oct 22 02:53 NNE 3 10 Clear CLR 45 42     90% 44   30.22 30.22      
Oct 22 01:53 NNE 5 10 Clear CLR 46 42     86% 44   30.22 30.22      
Oct 22 00:53 NNE 3 10 Clear CLR 47 42     83% 46   30.23 30.23      
Oct 21 23:53 N 3 10 Clear CLR 47 42     83% 46   30.24 30.24      
Oct 21 22:53 Calm 10 Clear CLR 50 42     74%     30.24 30.23      
Oct 21 21:53 Calm 10 Clear CLR 50 42     74%     30.23 30.23      
Oct 21 20:53 N 3 10 Clear CLR 51 42     71%     30.23 30.23      
Oct 21 19:53 NNW 5 10 Clear CLR 52 42     69%     30.23 30.23      
Oct 21 18:53 N 6 10 Clear CLR 55 40     57%     30.21 30.21      
Oct 21 17:53 NNE 6 10 Clear CLR 61 36     39%     30.2 30.19      
Oct 21 16:53 N 7 10 Clear CLR 66 33     29%     30.18 30.18      
Oct 21 15:53 N 10 10 Clear CLR 67 31     26%     30.19 30.18      
Oct 21 14:53 NE 9 10 Clear CLR 66 31     27%     30.18 30.18      
Oct 21 13:53 NNE 13 10 Clear CLR 65 28     25%     30.21 30.2      
Oct 21 12:53 N 14 10 Clear CLR 64 29     27%     30.23 30.22      
Oct 21 11:53 N 9 10 Clear CLR 61 31     32%     30.27 30.26      
Oct 21 10:53 NNE 11 10 Clear CLR 58 33     39%     30.28 30.27      
Oct 21 09:53 N 11 10 Clear CLR 56 35     45%     30.28 30.27      
Oct 21 08:53 NNE 9 10 Clear CLR 53 38     56%     30.27 30.27      
Oct 21 07:53 N 6 10 Clear CLR 51 46     83%     30.25 30.24      
Oct 21 06:53 Calm 10 Clear CLR 48 46     93%     30.21 30.21      
Oct 21 05:53 NNW 5 10 Clear CLR 51 47     86%     30.19 30.18      
Oct 21 04:53 NW 5 10 Clear CLR 52 49     89%     30.16 30.16      
Oct 21 03:53 NW 6 10 Clear CLR 53 51     93%     30.15 30.14      
Oct 21 02:53 W 6 10 Clear CLR 53 52     96%     30.14 30.13      
Oct 21 01:53 W 6 10 Clear CLR 55 54     96%     30.13 30.13      
Oct 21 00:53 W 6 10 Clear CLR 56 55     97%     30.14 30.14      
Oct 20 23:53 WNW 6 10 Clear CLR 58 56     93%     30.15 30.15      
Oct 20 22:53 NW 8 10 Clear CLR 60 57     90%     30.15 30.15      
Oct 20 21:53 WNW 8 10 Partly Cloudy SCT024 62 58     86%     30.14 30.14      
Oct 20 20:53 NW 9 10 Clear CLR 63 58     84%     30.12 30.11      
Oct 20 19:53 NW 8 10 Clear CLR 65 60     84%     30.09 30.09      
Oct 20 18:53 NW 8 10 Mostly Cloudy BKN070 BKN120 67 61     81%     30.07 30.06     0
Oct 20 18:04 NW 7 10 Partly Cloudy SCT025 68 62     81%     30.05        
Oct 20 17:53 NW 10 10 Mostly Cloudy BKN025 69 62     78%     30.04 30.03      
Oct 20 16:53 NNW 14 10 Cloudy OVC026 72 63     73%   72 30.01 30      
Oct 20 16:14 NW 6 10 Mostly Cloudy SCT023 BKN029 73 64     73%   73 30.01        
Oct 20 15:53 NW 7 10 Partly Cloudy FEW023 SCT065 74 65     74%   74 30 29.99 0 0  
Oct 20 14:53 Calm 9 Light Rain SCT060 OVC075 71 66     84%   72 30.01 30 0    
Oct 20 13:53 NW 9 10 Cloudy BKN070 OVC095 74 65     74%   74 30.03 30.02      
Oct 20 13:36 NW 7 10 Cloudy SCT029 BKN065 OVC080 73 65     76%   74 30.03        
Oct 20 13:23 NW 9 10 Cloudy BKN029 BKN035 OVC080 73 65     76%   74 30.04        
Oct 20 12:53 NW 14 10 Cloudy OVC031 73 67     81%   74 30.05 30.04 0   0
Oct 20 12:34 NW 11 10 Mostly Cloudy FEW025 BKN030 BKN035 74 69     85%   75 30.04   0    
Oct 20 12:27 NW 10 10 Mostly Cloudy FEW009 BKN025 BKN030 74 70     87%   75 30.05   0    
Oct 20 12:08 NW 9 9 Mostly Cloudy SCT010 BKN021 BKN037 74 71     91%   75 30.05   0    
Oct 20 12:01 NW 11 10 Cloudy BKN010 BKN019 OVC030 74 72     94%   75 30.05   0    
Oct 20 11:53 NW 10 3 Light Rain and Fog/Mist SCT011 BKN019 OVC030 74 72     94%   75 30.05 30.04 0    
Oct 20 11:12 WSW 8 10 Cloudy SCT010 OVC016 76 73     91%   77 30.06        
Oct 20 10:53 WSW 6 9 Cloudy BKN009 OVC015 76 73     91%   77 30.06 30.05 0    
Oct 20 10:41 W 5 7 Light Rain BKN009 OVC015 75 72     90%   76 30.07   0    
Oct 20 09:53 WSW 6 10 Cloudy OVC011 75 72     90%   76 30.07 30.06      
Oct 20 09:32 WSW 8 10 Cloudy OVC011 76 72     88%   77 30.06        
Oct 20 08:53 SW 7 7 Cloudy OVC005 74 72     94%   75 30.06 30.05      
Oct 20 08:34 SW 8 6 Fog/Mist OVC005 74 72     94%   75 30.05        
Oct 20 08:12 SW 6 5 Fog/Mist SCT005 73 72     96%   75 30.04        
Oct 20 08:05 SW 6 5 Fog/Mist BKN005 73 72     96%   75 30.04        
Oct 20 07:53 SW 7 4 Fog/Mist BKN004 OVC009 73 72     96%   75 30.04 30.03      
Oct 20 06:53 WSW 6 3 Fog/Mist OVC003 72 71     97%   73 30.04 30.03     0
Oct 20 06:46 WSW 6 4 Fog/Mist OVC003 72 71     97%   73 30.04        
Oct 20 06:24 SW 5 3 Fog/Mist OVC002 72 71     97%   73 30.04        
Oct 20 05:53 SW 6 3 Fog/Mist OVC003 72 71     97%   73 30.03 30.02      
Oct 20 05:18 SSW 7 3 Fog/Mist OVC003 72 71     97%   73 30.03        
Oct 20 04:53 SSW 6 4 Fog/Mist OVC005 72 71     97%   73 30.04 30.03      
Oct 20 04:30 Calm 3 Fog/Mist BKN008 BKN070 71 70     96%   72 30.04        
Oct 20 04:15 SSW 3 3 Fog/Mist FEW009 FEW034 SCT070 71 70     96%   72 30.04        
Oct 20 04:09 Calm 2.5 Fog/Mist FEW036 SCT070 71 70     96%   72 30.04        
Oct 20 03:53 SSW 3 3 Fog/Mist BKN032 BKN043 71 70     96%   72 30.04 30.03   0  
Oct 20 03:49 SSW 3 3 Fog/Mist SCT030 BKN036 OVC043 72 70     94%   73 30.05        
Oct 20 03:36 S 3 2 Fog/Mist SCT030 BKN041 70 70     100%     30.05        
Oct 20 03:24 Calm 1.25 Fog/Mist FEW013 SCT030 BKN044 70 69     97%     30.05        
Oct 20 03:15 Calm 2.5 Fog/Mist FEW013 BKN043 71 70     96%   72 30.05        
Oct 20 03:00 Calm 3 Fog/Mist SCT014 BKN043 71 70     96%   72 30.06        
Oct 20 02:57 Calm 1.5 Fog/Mist FEW014 SCT043 BKN055 71 70     96%   72 30.06        
Oct 20 02:53 Calm 0.75 Fog/Mist FEW016 SCT044 BKN055 71 70     96%   72 30.06 30.05      
Oct 20 02:49 Calm 0.75 Fog/Mist SCT044 BKN050 BKN110 72 70     94%   73 30.06        
Oct 20 02:43 Calm 1.75 Fog/Mist SCT044 SCT055 BKN110 71 70     96%   72 30.06        
Oct 20 01:53 Calm 5 Fog/Mist FEW042 BKN050 OVC060 72 71     97%   73 30.08 30.07 0    
Oct 20 01:16 S 3 7 Light Rain SCT026 BKN070 BKN110 72 70     93%   73 30.08   0    
Oct 20 01:09 Calm 2.5 Light Rain and Fog/Mist SCT029 BKN065 BKN100 71 70     96%   72 30.09   0    
Oct 20 01:03 3 1 Heavy Rain and Fog/Mist FEW014 SCT024 BKN032 71 70     96%   72 30.09   0    
Oct 20 01:01 3 0.75 Heavy Rain and Fog/Mist FEW014 SCT021 BKN028 70 69     97%     30.09   0    
Oct 20 00:56 W 5 1.5 Heavy Rain and Fog/Mist FEW015 SCT024 BKN031 71 69     93%   72 30.1   0    
Oct 20 00:53 SW 5 3 Fog/Mist FEW015 FEW027 SCT031 70 69     97%     30.1 30.09      
Oct 19 23:53 Calm 7 Clear CLR 70 69     97%     30.11 30.1      
Oct 19 22:53 Calm 9 Clear CLR 70 69     97%     30.12 30.11      
Oct 19 21:53 Calm 9 Clear CLR 70 69     97%     30.12 30.12      
Oct 19 20:53 Calm 10 Clear CLR 73 70     90%   74 30.12 30.11      
Oct 19 19:53 ESE 3 10 Clear CLR 74 71     91%   75 30.12 30.11      
Oct 19 18:53 Calm 10 Clear CLR 75 71     88%   76 30.12 30.11      
Oct 19 17:53 N 3 10 Partly Cloudy SCT050 79 70     74%   82 30.12 30.11      
Oct 19 16:53 SSE 3 10 Mostly Clear FEW030 FEW038 81 70     69%   84 30.12 30.11      
Oct 19 15:53 5 10 Mostly Cloudy SCT031 BKN036 82 69     65%   85 30.13 30.12      
Oct 19 15:17 SSE 5 10 Mostly Cloudy FEW029 BKN034 BKN047 83 70     65%   87 30.14        
Oct 19 14:53 S 6 10 Mostly Cloudy BKN027 BKN034 BKN042 82 69     65%   85 30.14 30.14      
Oct 19 14:21 3 10 Mostly Cloudy BKN026 BKN036 81 69     67%   84 30.16        
Oct 19 14:00 5 10 Mostly Cloudy FEW024 BKN030 BKN035 81 69     67%   84 30.17        
Oct 19 13:53 SSE 3 10 Mostly Cloudy BKN021 BKN028 80 69     69%   83 30.17 30.16      
Oct 19 12:53   10 Mostly Cloudy BKN021 80 68     67%   83 30.2 30.19      
Oct 19 11:53 3 10 Mostly Cloudy BKN021 79 66     65%   80 30.24 30.23      
Oct 19 10:53 5 10 Cloudy OVC017 75 64     69%   75 30.26 30.25      
Oct 19 10:34 E 5 10 Mostly Cloudy BKN017 74 63     69%   74 30.26        
Oct 19 09:53 ESE 8 10 Clear CLR 72 61     68%   72 30.27 30.27      
Oct 19 09:26 ESE 7 10 Partly Cloudy SCT019 70 60     71%     30.27        
Oct 19 08:53 E 8 10 Cloudy OVC019 67 59     76%     30.27 30.27      
Oct 19 07:53 E 8 10 Cloudy OVC018 65 58     78%     30.26 30.25      
Oct 19 06:53 E 6 10 Mostly Cloudy BKN015 63 58     84%     30.25 30.24      
Oct 19 06:21 E 6 10 Cloudy OVC015 64 58     81%     30.25        
Oct 19 05:53 E 8 10 Cloudy OVC014 64 57     78%     30.25 30.24      
Oct 19 05:08 E 8 10 Cloudy OVC014 64 57     78%     30.25        
Oct 19 04:53 E 7 10 Cloudy OVC016 63 57     81%     30.24 30.24      
Oct 19 04:35 E 7 10 Mostly Cloudy BKN016 63 57     81%     30.24        
Oct 19 03:53 ENE 5 10 Clear CLR 62 57     84%     30.24 30.24      
Oct 19 02:53 ENE 6 10 Clear   63 57     81%     30.25 30.24      
Oct 19 01:53 E 5 10 Clear CLR 63 57     81%     30.26 30.25      
Oct 19 00:53 Calm 10 Clear CLR 63 58     84%     30.26 30.26      
Oct 18 23:53 N 3 10 Clear CLR 64 59     84%     30.27 30.27      
Oct 18 22:53 NNE 3 10 Clear CLR 64 58     81%     30.28 30.27      
Oct 18 21:53 Calm 10 Clear CLR 65 57     76%     30.29 30.28      
Oct 18 20:53 Calm 10 Clear CLR 64 57     78%     30.29 30.28      
Oct 18 19:53 N 5 10 Clear CLR 67 57     71%     30.28 30.28      
Oct 18 18:53 NNE 3 10 Clear CLR 70 55     59%     30.27 30.26      
Oct 18 17:53 NNE 5 10 Clear CLR 73 54     51%   72 30.26 30.25      
Oct 18 16:53 N 7 10 Clear CLR 78 53     42%   78 30.26 30.25      
Oct 18 15:53 NNE 7 10 Clear CLR 79 52     39%   78 30.25 30.24      
Oct 18 14:53 7 10 Clear CLR 79 52     39%   78 30.26 30.25      
Oct 18 13:53 N 7 10 Clear CLR 78 52     40%   77 30.27 30.26      
Oct 18 12:53 6 10 Clear CLR 76 52     43%   75 30.29 30.29      
Oct 18 11:53 N 6 10 Clear CLR 74 52     46%   73 30.32 30.32      
Oct 18 10:53 NNE 8 10 Clear CLR 71 52     51%   70 30.33 30.33      
Oct 18 09:53 NNE 7 10 Clear CLR 68 51     55%     30.34 30.33      
Oct 18 08:53 NE 9 10 Clear CLR 65 51     61%     30.34 30.33      
Oct 18 07:53 N 5 10 Clear CLR 61 52     72%     30.33 30.32      
Oct 18 06:53 NNW 5 10 Clear CLR 57 52     83%     30.31 30.3      
Oct 18 05:53 NE 5 10 Clear CLR 59 51     75%     30.29 30.29      
Oct 18 04:53 NNE 7 10 Clear CLR 60 51     72%     30.29 30.28      
Oct 18 03:53 NNE 6 10 Partly Cloudy SCT085 61 53     75%     30.28 30.27      
Oct 18 02:53 N 7 10 Mostly Clear FEW090 61 54     78%     30.28 30.27      
Oct 18 01:53 N 6 10 Clear CLR 62 55     78%     30.28 30.27      
Oct 18 00:53 N 7 10 Clear CLR 62 56     80%     30.28 30.27      
Oct 17 23:53 N 6 10 Clear CLR 63 57     81%     30.28 30.27      
Oct 17 22:53 NNW 6 10 Clear CLR 64 58     81%     30.28 30.28      
Oct 17 21:53 N 5 10 Clear CLR 65 58     78%     30.28 30.27      
Oct 17 20:53 N 6 10 Clear   67 59     76%     30.27 30.26      
Oct 17 19:53 N 8 10 Mostly Cloudy BKN060 69 60     73%     30.26 30.25      
Oct 17 18:53 N 10 10 Cloudy OVC060 71 62     73%   71 30.23 30.23      
Oct 17 17:53 N 10 10 Cloudy OVC046 74 64     71%   74 30.21 30.21      
Oct 17 16:53 NNE 9 10 Cloudy OVC044 78 64     62%   79 30.2 30.19      
Oct 17 15:53 N 8 10 Mostly Cloudy BKN046 77 64     64%   77 30.2 30.19      
Oct 17 14:53 NW 5 10 Cloudy BKN048 OVC055 77 65     66%   78 30.2 30.19      
Oct 17 13:53 N 6 10 Cloudy OVC044 76 65     69%   76 30.21 30.2      
Oct 17 12:53 NNE 7 10 Cloudy OVC033 76 65     69%   76 30.22 30.21      
Oct 17 11:53 N 10 10 Cloudy OVC030 77 66     69%   78 30.23 30.22      
Oct 17 11:34 N 9 10 Cloudy OVC031 76 66     71%   77 30.24        
Oct 17 10:53 N 9 10 Cloudy BKN015 OVC027 73 65     76%   74 30.24 30.23      
Oct 17 09:53 NNE 8 10 Cloudy OVC022 72 66     82%   73 30.23 30.22      
May 15 10:53 E 8 10 Cloudy BKN033 OVC041 83 67     59%   86 29.99 29.98      
May 14 19:53 SE 7 10 Clear CLR 79 68     69%   80 29.93 29.92      
May 14 17:53 NE 5 10 Clear CLR 89 63     42%   90 29.92 29.91      
May 14 12:53 N 7 10 Mostly Clear FEW070 93 60     33%   93 30 29.98      
May 14 11:53 N 5 10 Clear CLR 93 64     38%   95 30.01 30      
May 13 00:53 Calm 10 Clear CLR 67 63     87%     30.07 30.06      
May 12 15:53 SW 7 10 Clear CLR 91 53     28%   89 30.08 30.07      
May 11 16:53 Calm 10 Mostly Clear FEW080 90 56     32%   88 30.05 30.04      
May 11 11:53 3 10 Clear CLR 86 59     40%   85 30.14 30.13      
Jun 12 08:37 ESE 8 10 Mostly Clear FEW015 81 70     69%   84 30.16        
Jun 11 20:53 ESE 5 10 Clear CLR 79 71     77%   82 30.1 30.09      
Jun 11 16:53 SSE 9 10 Clear CLR 84 68     59%   87 30.07 30.06      
Jun 11 10:53 SE 7 10 Mostly Clear FEW028 86 68     55%   89 30.14 30.13      
Jun 11 10:10 ESE 7 10 Partly Cloudy SCT023 85 70     61%   89 30.15        
Jun 11 09:53 SE 8 10 Mostly Cloudy BKN023 84 70     63%   88 30.15 30.14      
Jun 09 16:53 S 5 10 Clear CLR 87 56     35%   86 29.92 29.91      
Jun 09 15:53 5 10 Mostly Clear FEW060 86 56     36%   85 29.93 29.92      
Jun 08 06:53 Calm 10 Clear CLR 67 58     73%     29.89 29.88      
Jun 07 10:53 NNE 10 10 Clear CLR 80 66     62%   82 29.77 29.76      
Jun 06 13:58 N 9 2 Heavy Rain FEW027 BKN034 OVC060 75 70     84%   76 29.73   0    
Jun 06 13:43 N 10 1.25 Heavy Rain FEW006 BKN022 OVC040 74 69     85%   75 29.74   0    
Jun 06 12:53 SE 11 10 Mostly Cloudy FEW021 SCT033 BKN042 80 70     71%   83 29.75 29.74      
Jun 06 09:53 NE 9 10 Mostly Cloudy BKN007 79 71     77%   82 29.76 29.75      
Jun 06 07:53 Calm 10 Mostly Clear FEW004 74 69     85%   75 29.78 29.77      
Notice The following observation data may not be complete
Jun 05 21:03   6 Rain FEW006 BKN023 OVC110          %         0    
Jun 05 19:28 N 3 10 Mostly Cloudy SCT027 BKN065 75 68     79%   76 29.79